Theta_e
347 347 347 348 347 347 345 345 348 347 345 346 348 346 342 340 339 337 340 340 343 344 344 344 343 343 342 340 337 335 335 334 333 331 331 332 331 332 332 332 330 332 336
347 347 346 347 347 347 346 346 346 346 346 347 347 344 342 340 340 338 341 343 344 344 344 343 343 343 340 338 336 334 334 333 332 329 330 330 330 332 331 330 330 329 336
347 348 346 346 345 347 347 346 345 343 342 342 343 342 340 339 340 340 341 342 343 343 344 343 341 339 338 336 334 333 333 332 330 330 330 331 331 334 332 331 332 336 333
347 348 347 345 345 345 345 346 346 344 343 341 340 338 340 343 343 341 342 343 343 342 342 340 337 336 334 332 333 333 333 329 330 331 329 331 331 334 331 330 330 331 331
347 347 346 345 345 344 344 344 345 345 341 339 340 339 340 342 343 341 341 341 342 340 340 337 336 335 331 333 333 333 331 329 330 330 329 330 330 332 329 332 335 330 327
348 347 344 345 345 343 344 344 344 344 342 337 338 339 339 341 341 337 342 341 340 339 338 337 338 335 329 332 333 332 331 330 329 330 329 330 329 332 331 330 331 329 333
348 347 344 345 345 344 343 343 343 343 342 340 336 336 338 339 340 339 341 339 338 338 336 333 336 334 330 329 329 327 327 328 329 330 329 329 330 331 330 329 330 330 329
345 346 345 343 343 344 343 343 343 343 342 342 340 340 339 337 334 339 340 338 338 337 332 330 336 333 330 327 324 325 326 328 330 330 329 329 329 329 329 329 330 328 328
336 343 346 343 343 343 343 344 343 343 342 341 341 341 337 338 340 339 336 337 337 335 329 329 330 330 326 325 322 325 327 327 330 330 329 329 330 329 329 329 328 328 328
315 330 342 343 342 341 342 342 342 342 343 341 341 340 341 337 341 341 337 336 335 333 329 328 328 328 328 325 323 325 326 326 329 329 330 329 330 330 329 330 328 328 328
311 312 323 338 342 341 340 341 341 341 341 341 342 340 340 340 340 340 338 335 331 334 329 328 327 328 328 326 323 324 324 325 327 329 330 329 331 330 329 329 329 328 328
308 309 309 320 336 341 340 340 340 340 339 340 342 341 340 340 339 339 338 335 331 330 329 327 327 329 327 325 323 323 323 324 326 329 330 330 331 330 329 328 327 327 325
306 307 308 309 317 334 340 340 339 339 339 339 340 340 341 340 339 338 337 335 333 330 332 328 328 329 327 326 325 324 323 324 325 328 330 330 331 330 328 324 324 323 323
305 306 307 308 308 320 332 339 339 339 338 339 339 341 340 340 339 338 337 336 333 328 329 326 327 328 327 327 327 326 322 323 324 325 329 329 330 330 326 324 323 323 323
304 306 306 307 307 309 317 329 338 339 338 338 339 340 341 340 338 337 336 335 334 326 323 324 327 328 328 327 327 327 326 322 322 323 326 327 328 328 328 326 325 324 324
303 303 305 305 306 307 309 317 328 339 338 338 338 339 340 339 338 337 335 335 334 331 322 321 326 327 327 327 327 327 327 326 322 323 323 325 325 326 327 329 330 329 328
302 303 303 304 305 306 307 310 318 330 339 338 338 339 339 339 338 337 335 334 332 330 323 319 326 327 327 326 327 327 327 327 327 325 325 325 325 325 326 328 330 329 329
302 303 303 304 304 304 305 307 313 319 335 338 337 338 339 339 337 337 335 333 331 325 321 318 323 326 326 326 326 327 327 328 327 327 326 326 326 325 326 326 326 328 329
302 302 303 303 304 304 304 305 307 315 321 337 337 339 339 338 337 335 334 334 333 328 321 318 320 325 325 326 327 328 327 327 328 328 327 327 326 326 326 326 326 326 326
301 301 302 302 303 304 304 305 307 311 320 330 338 338 339 338 337 334 335 334 334 330 323 319 320 322 325 326 328 327 326 327 327 327 327 327 326 326 326 326 326 326 326
301 301 301 301 302 302 304 307 310 316 319 329 336 337 338 337 337 335 334 334 334 333 326 318 320 322 324 327 325 324 324 323 324 326 324 325 326 326 325 325 325 325 325
303 301 301 301 301 302 303 307 310 315 321 328 333 337 336 336 336 336 333 334 334 332 326 320 320 322 325 327 326 326 329 327 326 324 325 326 326 325 325 325 325 325 325
304 303 302 301 301 302 303 305 311 317 323 327 329 331 336 336 336 336 334 333 333 331 327 323 320 322 325 326 326 328 329 331 328 326 326 326 326 326 325 325 325 326 326
306 306 304 302 302 302 303 309 313 317 322 324 325 330 332 332 335 336 335 334 333 331 327 327 320 322 326 327 326 327 327 327 331 329 324 325 326 326 326 326 326 325 324
306 305 305 302 302 302 303 309 313 316 318 322 324 325 329 332 335 334 334 333 332 331 330 328 322 322 326 327 327 327 326 326 326 327 327 325 323 325 325 324 324 324 323
306 307 304 302 302 302 303 308 311 314 316 319 323 325 327 329 330 332 333 333 332 331 331 330 328 321 324 327 326 327 327 327 326 324 325 324 324 323 323 323 323 323 322
Wind_Speed
6 19 23 23 23 21 20 20 21 22 22 21 20 20 19 19 18 19 17 18 15 18 18 17 18 20 21 21 19 19 18 19 19 21 21 20 20 19 19 21 20 20 19
10 20 22 23 23 21 20 19 20 22 23 23 20 18 18 19 19 18 18 16 18 19 20 21 21 21 20 19 18 20 20 20 22 22 21 20 19 18 19 20 19 18 20
13 20 22 23 22 21 20 20 18 19 20 20 20 19 18 18 19 17 17 17 18 20 21 23 21 19 19 19 19 20 20 20 22 22 20 19 18 17 19 19 19 18 20
13 19 21 23 23 22 20 19 19 17 18 17 18 20 20 18 19 18 17 17 19 20 21 21 19 18 19 19 19 19 20 21 21 20 17 16 16 17 17 16 17 17 19
13 20 22 23 24 23 21 19 18 17 18 18 19 21 21 19 19 18 19 18 20 21 21 18 17 19 17 18 18 18 20 19 20 19 17 16 16 16 15 15 17 17 17
12 21 23 23 23 23 23 22 21 19 17 19 20 21 21 20 19 22 19 20 21 21 20 18 18 16 16 16 17 17 18 18 18 17 16 17 17 14 16 14 15 16 16
10 19 23 24 22 23 23 23 22 21 20 19 20 20 19 21 20 23 20 21 20 19 16 16 17 16 15 15 15 17 17 17 18 17 16 15 15 15 14 15 14 15 14
3 11 19 22 23 23 24 22 23 22 21 21 21 21 20 20 22 23 21 20 18 17 16 16 16 16 14 14 15 16 16 17 17 16 15 15 14 14 14 14 14 13 13
10 5 10 18 21 22 23 23 25 24 23 22 23 22 22 25 22 22 21 21 18 17 17 17 17 14 14 14 15 16 15 16 16 15 14 13 12 13 12 13 12 12 13
18 14 0 11 18 19 21 22 24 25 25 24 23 22 22 24 22 22 22 20 19 18 18 17 16 14 13 14 15 15 15 14 14 15 12 12 12 11 11 11 10 11 11
17 17 13 3 11 16 19 22 23 24 24 23 22 22 21 21 21 23 23 22 20 19 19 17 16 16 13 12 14 14 14 14 13 11 11 12 11 10 10 10 9 9 9
19 16 15 12 6 10 16 19 22 22 23 23 23 24 23 22 20 20 23 22 21 20 20 18 17 16 15 15 14 13 13 13 12 11 9 10 10 9 9 8 8 8 8
19 18 13 13 11 5 11 17 20 23 23 24 25 26 23 24 24 22 21 20 19 21 20 19 18 19 16 17 15 13 13 13 12 11 10 10 9 8 7 7 6 6 6
22 22 18 14 12 8 6 13 18 23 25 26 27 28 27 27 26 26 25 24 21 23 23 23 21 19 18 16 14 12 12 12 11 11 9 10 8 7 6 6 5 4 4
26 27 24 18 15 11 8 7 16 22 27 28 29 30 30 30 29 28 27 26 24 23 25 24 22 21 19 18 15 13 12 12 11 10 9 9 8 7 5 4 4 3 2
29 29 28 24 20 16 14 10 9 20 26 30 31 32 33 33 33 32 32 29 27 25 25 25 25 22 20 17 15 15 12 11 11 10 10 9 8 7 6 5 3 3 2
31 30 29 27 24 22 20 16 13 13 25 31 34 32 35 35 34 34 32 31 30 28 26 25 26 23 20 17 15 16 14 12 11 10 10 9 9 8 7 6 5 5 5
30 31 29 27 26 25 24 21 18 15 19 29 34 35 37 35 35 35 35 30 30 29 28 28 28 26 23 20 17 15 16 15 13 12 10 10 10 9 8 7 7 7 7
32 31 31 29 29 28 26 25 24 21 18 27 32 34 38 36 35 34 36 33 33 31 30 30 30 28 25 22 19 15 15 17 16 14 13 12 11 10 10 9 8 8 8
30 31 32 32 29 28 29 29 28 25 22 22 33 33 35 40 38 34 32 32 35 31 30 30 29 28 22 21 17 15 15 16 17 17 15 14 13 13 12 11 11 9 8
29 32 34 35 35 33 30 28 25 23 27 24 30 37 37 39 42 38 32 35 34 35 34 32 28 27 23 21 13 10 12 13 15 16 16 15 15 15 15 13 12 10 9
27 31 34 36 36 35 34 28 25 23 25 25 26 33 35 38 40 41 36 39 38 36 30 35 33 20 19 24 12 8 3 6 14 16 16 15 15 15 14 13 12 11 10
25 28 32 35 36 36 36 32 25 24 23 23 24 27 34 35 42 41 38 37 38 37 36 40 37 30 24 23 22 9 3 6 5 12 18 17 16 15 14 14 14 13 12
26 28 30 34 35 37 35 30 27 24 24 22 25 28 29 32 38 44 43 40 40 39 35 39 41 37 28 23 23 27 10 6 4 3 9 16 18 19 18 17 16 15 14
23 27 28 31 33 34 34 33 30 29 27 23 23 26 29 31 35 39 40 41 40 40 39 39 36 37 36 29 28 20 14 12 8 2 3 6 17 19 19 18 17 15 15
20 26 26 27 31 33 34 34 34 32 30 27 25 25 27 28 32 35 39 40 39 39 40 42 43 41 33 29 28 25 24 14 8 5 2 4 10 14 20 20 20 19 17
Wind_Direction
194 169 175 174 171 166 162 157 151 152 154 149 145 144 143 141 137 136 131 130 123 123 126 121 120 119 111 105 102 102 102 101 99 96 91 90 87 82 82 87 78 80 73
201 171 178 177 175 170 164 158 153 153 153 150 148 150 147 144 141 140 134 130 122 120 120 116 112 109 108 109 107 106 106 103 105 101 95 89 85 87 85 79 83 76 76
192 175 177 179 179 173 164 164 159 160 159 158 155 152 151 150 147 146 141 134 129 126 122 120 113 114 111 112 111 110 108 107 105 100 96 90 91 89 88 82 84 78 78
189 181 176 180 180 176 174 171 168 170 166 163 157 150 148 153 154 145 147 141 137 132 127 126 126 115 112 112 112 114 113 111 108 106 94 95 92 87 91 83 85 79 78
187 184 182 183 183 181 176 177 175 174 170 165 157 152 153 152 151 151 150 149 141 137 135 138 132 118 114 115 116 117 117 116 113 103 99 98 94 91 89 86 89 85 82
192 188 187 188 186 184 182 181 179 177 176 168 164 162 161 157 155 154 158 150 146 147 146 140 130 123 121 118 118 119 121 120 117 105 98 99 98 92 95 87 87 85 83
200 194 191 192 193 190 189 185 183 180 178 174 169 166 166 166 165 163 159 156 154 155 149 143 141 134 128 123 123 126 126 122 112 107 100 103 103 98 97 92 93 87 85
181 205 202 200 204 199 193 190 186 183 181 179 172 168 172 171 165 171 162 161 163 162 151 140 142 142 136 131 132 131 129 125 116 111 107 108 107 102 101 99 94 93 88
43 201 222 221 215 210 205 195 189 188 186 186 181 176 171 170 175 177 175 170 172 170 157 148 146 147 139 134 136 135 133 131 125 116 113 109 114 106 106 105 96 101 95
39 42 140 222 229 228 216 208 198 194 191 192 187 183 181 179 179 178 177 177 178 176 166 156 154 152 144 139 141 139 138 134 127 126 116 117 115 113 112 110 108 105 106
17 23 25 353 231 231 231 222 211 204 199 195 190 187 185 181 182 179 179 180 179 181 173 164 162 158 149 146 145 144 143 140 135 131 123 127 122 120 119 118 114 112 111
340 349 5 10 347 241 231 227 224 214 206 200 191 188 187 183 184 182 183 183 183 184 178 174 168 164 156 150 150 151 151 147 143 137 132 131 126 125 124 126 125 120 116
319 318 328 342 351 317 241 229 225 223 214 207 200 194 190 187 190 188 183 185 184 187 180 179 176 173 168 160 157 160 159 156 153 149 146 143 137 136 132 126 123 118 110
304 299 301 307 317 332 286 238 230 224 218 213 209 199 196 195 193 192 191 191 192 190 190 188 182 180 175 171 165 162 168 167 165 162 159 154 153 151 145 139 134 123 114
284 286 284 285 287 290 294 270 236 229 222 217 211 206 201 200 199 198 199 198 198 195 195 193 187 185 184 180 178 175 174 177 175 175 171 169 171 172 171 168 155 145 138
276 274 275 273 270 272 271 276 258 229 228 220 217 210 207 203 204 203 204 204 204 202 200 199 194 190 188 189 189 185 185 183 184 185 184 185 188 190 192 197 203 216 232
270 268 263 262 262 258 259 262 262 244 226 223 220 211 208 208 207 207 206 206 207 205 203 201 199 198 199 199 197 196 198 197 197 195 195 197 201 204 209 210 217 243 261
270 265 262 260 259 256 253 251 254 255 233 222 222 216 211 207 209 207 210 209 208 204 203 201 201 200 203 206 207 209 215 210 210 210 210 211 215 217 220 224 226 237 256
268 263 260 255 251 253 252 247 243 246 245 226 222 217 210 208 207 207 213 209 210 204 203 202 200 203 203 207 213 222 217 218 221 222 222 223 226 226 227 230 238 245 252
263 261 256 253 252 250 249 247 245 244 241 233 219 212 209 210 211 207 210 212 208 208 205 202 202 201 206 208 214 218 221 221 229 230 232 232 233 234 235 236 239 246 255
266 258 253 251 251 248 247 241 238 234 233 229 222 219 213 210 210 206 202 214 210 210 210 205 203 201 203 204 191 210 223 233 233 232 233 234 237 237 237 235 237 239 239
263 256 252 249 246 242 240 235 228 224 224 220 219 215 214 212 210 206 203 216 215 211 207 206 203 197 202 200 187 174 210 238 240 231 229 231 232 230 230 228 226 229 232
258 251 248 247 244 241 237 237 230 226 223 216 215 216 210 213 208 211 205 213 215 208 206 209 205 199 196 200 198 182 167 218 180 220 225 225 222 222 220 221 225 230 232
264 261 249 240 239 239 236 221 214 216 218 220 209 210 213 218 214 208 211 214 217 211 207 211 211 205 198 199 203 212 217 170 192 199 222 221 220 222 224 226 227 227 229
270 262 256 240 235 236 232 219 212 214 218 218 212 208 213 213 210 213 208 206 211 210 214 212 208 205 206 206 203 202 210 200 202 155 200 203 223 224 225 224 226 226 225
278 275 254 231 232 234 232 225 216 214 211 212 212 213 213 216 213 214 211 210 210 213 213 216 216 212 211 213 214 212 210 205 197 176 173 195 214 221 223 225 224 223 225